| time (UTC) | temp F | wind direction | speed knots | gust knots | rain 1hr in | rain 24hr in | rain mn in | humidity % | barometer mb |
| 20260507213805 | 48 | 130 | 0.0 | 0.9 | 0.00 | 0.00 | 0.00 | 91 | 1015.8 |
| 20260507213306 | 48 | 4 | 0.9 | 1.7 | 0.00 | 0.00 | 0.00 | 91 | 1015.9 |
| 20260507211806 | 49 | 121 | 0.9 | 2.6 | 0.00 | 0.00 | 0.00 | 88 | 1015.4 |
| 20260507211306 | 49 | 119 | 0.9 | 1.7 | 0.00 | 0.00 | 0.00 | 88 | 1015.7 |
| 20260507210804 | 50 | 120 | 0.0 | 0.0 | 0.00 | 0.00 | 0.00 | 87 | 1015.5 |
| 20260507210305 | 50 | 103 | 0.9 | 4.3 | 0.00 | 0.00 | 0.00 | 87 | 1015.2 |
| 20260507204805 | 51 | 108 | 0.9 | 2.6 | 0.00 | 0.00 | 0.00 | 86 | 1015.1 |
| 20260507204304 | 51 | 95 | 0.9 | 2.6 | 0.00 | 0.00 | 0.00 | 86 | 1015.2 |
| 20260507203806 | 51 | 111 | 1.7 | 2.6 | 0.00 | 0.00 | 0.00 | 86 | 1015.2 |
| 20260507203305 | 51 | 97 | 1.7 | 2.6 | 0.00 | 0.00 | 0.00 | 86 | 1015.1 |
| 20260507201805 | 52 | 102 | 0.9 | 1.7 | 0.00 | 0.00 | 0.00 | 86 | 1014.8 |
| 20260507201305 | 52 | 105 | 0.9 | 1.7 | 0.00 | 0.00 | 0.00 | 85 | 1014.8 |
| 20260507194806 | 53 | 89 | 0.9 | 2.6 | 0.00 | 0.00 | 0.00 | 83 | 1014.2 |
| 20260507194306 | 54 | 110 | 0.9 | 4.3 | 0.00 | 0.00 | 0.00 | 83 | 1014.2 |
| 20260507193806 | 53 | 102 | 1.7 | 2.6 | 0.00 | 0.00 | 0.00 | 83 | 1014.0 |
| 20260507193305 | 54 | 105 | 2.6 | 4.3 | 0.00 | 0.00 | 0.00 | 83 | 1014.1 |
| 20260507191805 | 55 | 118 | 0.9 | 1.7 | 0.00 | 0.00 | 0.00 | 82 | 1014.1 |
| 20260507191305 | 55 | 116 | 1.7 | 1.7 | 0.00 | 0.00 | 0.00 | 82 | 1013.6 |
| 20260507190805 | 56 | 112 | 0.9 | 1.7 | 0.00 | 0.00 | 0.00 | 80 | 1013.8 |
| 20260507190304 | 56 | 19 | 0.0 | 1.7 | 0.00 | 0.00 | 0.00 | 79 | 1013.7 |
| 20260507184804 | 57 | 87 | 0.9 | 1.7 | 0.00 | 0.00 | 0.00 | 77 | 1013.5 |
| 20260507184306 | 58 | 121 | 1.7 | 1.7 | 0.00 | 0.00 | 0.00 | 75 | 1013.5 |
| 20260507183805 | 58 | 129 | 0.0 | 0.9 | 0.00 | 0.00 | 0.00 | 72 | 1013.4 |
| 20260507181805 | 62 | 272 | 0.0 | 0.9 | 0.00 | 0.00 | 0.00 | 61 | 1012.6 |
| 20260507181305 | 62 | 283 | 0.0 | 0.0 | 0.00 | 0.00 | 0.00 | 62 | 1012.7 |
| 20260507180805 | 63 | 279 | 0.0 | 0.9 | 0.00 | 0.00 | 0.00 | 61 | 1012.7 |
| 20260507180305 | 63 | 320 | 0.0 | 0.9 | 0.00 | 0.00 | 0.00 | 60 | 1012.8 |
| 20260507174805 | 65 | 257 | 0.0 | 1.7 | 0.00 | 0.00 | 0.00 | 56 | 1012.3 |
| 20260507173805 | 66 | 236 | 0.0 | 2.6 | 0.00 | 0.00 | 0.00 | 54 | 1012.1 |
| 20260507173306 | 66 | 155 | 0.0 | 2.6 | 0.00 | 0.00 | 0.00 | 54 | 1012.2 |
| 20260507171805 | 67 | 244 | 0.9 | 4.3 | 0.00 | 0.00 | 0.00 | 52 | 1012.1 |
| 20260507170806 | 67 | 263 | 1.7 | 5.2 | 0.00 | 0.00 | 0.00 | 52 | 1012.2 |
| 20260507170306 | 67 | 285 | 1.7 | 5.2 | 0.00 | 0.00 | 0.00 | 52 | 1012.2 |
| 20260507164804 | 68 | 284 | 0.9 | 5.2 | 0.00 | 0.00 | 0.00 | 51 | 1012.1 |
| 20260507164306 | 68 | 240 | 1.7 | 5.2 | 0.00 | 0.00 | 0.00 | 50 | 1012.2 |
| 20260507163805 | 68 | 268 | 0.9 | 6.1 | 0.00 | 0.00 | 0.00 | 51 | 1012.0 |
| 20260507163304 | 68 | 194 | 1.7 | 6.1 | 0.00 | 0.00 | 0.00 | 51 | 1012.1 |
| 20260507161805 | 69 | 274 | 1.7 | 5.2 | 0.00 | 0.00 | 0.00 | 50 | 1011.9 |
| 20260507161305 | 68 | 229 | 1.7 | 5.2 | 0.00 | 0.00 | 0.00 | 51 | 1011.9 |
| 20260507160806 | 68 | 247 | 1.7 | 5.2 | 0.00 | 0.00 | 0.00 | 50 | 1012.0 |
| 20260507160305 | 68 | 235 | 1.7 | 7.0 | 0.00 | 0.00 | 0.00 | 51 | 1012.0 |
| 20260507154805 | 68 | 236 | 1.7 | 8.7 | 0.00 | 0.00 | 0.00 | 51 | 1011.8 |
| 20260507154305 | 68 | 219 | 1.7 | 8.7 | 0.00 | 0.00 | 0.00 | 52 | 1011.8 |
| 20260507153805 | 68 | 200 | 1.7 | 7.8 | 0.00 | 0.00 | 0.00 | 52 | 1011.7 |
| 20260507153304 | 68 | 217 | 1.7 | 7.0 | 0.00 | 0.00 | 0.00 | 52 | 1011.5 |
| 20260507151804 | 66 | 227 | 2.6 | 7.8 | 0.00 | 0.00 | 0.00 | 55 | 1012.2 |
| 20260507151305 | 66 | 241 | 2.6 | 7.8 | 0.00 | 0.00 | 0.00 | 55 | 1012.1 |
| 20260507150804 | 67 | 195 | 0.9 | 7.0 | 0.00 | 0.00 | 0.00 | 56 | 1012.0 |
| 20260507150304 | 66 | 299 | 1.7 | 5.2 | 0.00 | 0.00 | 0.00 | 59 | 1012.1 |
| 20260507144804 | 66 | 227 | 1.7 | 6.1 | 0.00 | 0.00 | 0.00 | 58 | 1011.9 |
| 20260507144305 | 68 | 220 | 1.7 | 5.2 | 0.00 | 0.00 | 0.00 | 56 | 1011.8 |
| 20260507143304 | 66 | 149 | 0.9 | 6.1 | 0.00 | 0.00 | 0.00 | 60 | 1012.1 |
| 20260507141804 | 66 | 115 | 0.9 | 4.3 | 0.00 | 0.00 | 0.00 | 59 | 1012.0 |
| 20260507141304 | 66 | 174 | 0.9 | 4.3 | 0.00 | 0.00 | 0.00 | 58 | 1012.0 |
| 20260507140806 | 66 | 126 | 0.9 | 1.7 | 0.00 | 0.00 | 0.00 | 59 | 1012.0 |
| 20260507140305 | 66 | 169 | 0.9 | 4.3 | 0.00 | 0.00 | 0.00 | 59 | 1012.1 |
| 20260507134806 | 66 | 131 | 1.7 | 4.3 | 0.00 | 0.00 | 0.00 | 60 | 1012.0 |
| 20260507134305 | 66 | 203 | 2.6 | 5.2 | 0.00 | 0.00 | 0.00 | 58 | 1012.3 |
| 20260507133804 | 66 | 207 | 0.9 | 4.3 | 0.00 | 0.00 | 0.00 | 61 | 1012.4 |
| 20260507133305 | 66 | 175 | 0.0 | 4.3 | 0.00 | 0.00 | 0.00 | 60 | 1012.5 |
| 20260507131304 | 68 | 151 | 0.9 | 1.7 | 0.00 | 0.00 | 0.00 | 53 | 1012.3 |
| 20260507130805 | 69 | 52 | 0.9 | 0.9 | 0.00 | 0.00 | 0.00 | 51 | 1011.9 |
| 20260507130306 | 69 | 295 | 0.0 | 4.3 | 0.00 | 0.00 | 0.00 | 52 | 1012.3 |
| 20260507124805 | 69 | 49 | 0.9 | 2.6 | 0.00 | 0.00 | 0.00 | 50 | 1012.3 |
| 20260507123804 | 68 | 305 | 0.9 | 1.7 | 0.00 | 0.00 | 0.00 | 48 | 1012.5 |
| 20260507123304 | 68 | 260 | 0.0 | 2.6 | 0.00 | 0.00 | 0.00 | 51 | 1012.5 |
| 20260507121805 | 69 | 249 | 0.9 | 5.2 | 0.00 | 0.00 | 0.00 | 48 | 1012.2 |
| 20260507121305 | 70 | 266 | 0.9 | 4.3 | 0.00 | 0.00 | 0.00 | 48 | 1012.1 |
| 20260507120805 | 69 | 123 | 0.9 | 1.7 | 0.00 | 0.00 | 0.00 | 49 | 1012.1 |
| 20260507120304 | 68 | 269 | 0.9 | 4.3 | 0.00 | 0.00 | 0.00 | 49 | 1012.4 |
| 20260507114804 | 68 | 2 | 1.7 | 5.2 | 0.00 | 0.00 | 0.00 | 50 | 1012.0 |
| 20260507114304 | 69 | 313 | 0.0 | 2.6 | 0.00 | 0.00 | 0.00 | 48 | 1012.3 |
| 20260507113304 | 70 | 330 | 0.9 | 8.7 | 0.00 | 0.00 | 0.00 | 44 | 1012.2 |
| 20260507111806 | 70 | 339 | 1.7 | 5.2 | 0.00 | 0.00 | 0.00 | 46 | 1012.0 |
| 20260507110804 | 69 | 33 | 2.6 | 8.7 | 0.00 | 0.00 | 0.00 | 45 | 1012.4 |
| 20260507104804 | 69 | 20 | 1.7 | 5.2 | 0.00 | 0.00 | 0.00 | 46 | 1012.3 |
| 20260507104306 | 69 | 321 | 1.7 | 7.0 | 0.00 | 0.00 | 0.00 | 47 | 1012.4 |
| 20260507103805 | 69 | 14 | 1.7 | 7.0 | 0.00 | 0.00 | 0.00 | 46 | 1012.8 |
| 20260507101805 | 67 | 12 | 4.3 | 7.8 | 0.00 | 0.00 | 0.00 | 49 | 1012.8 |
| 20260507100805 | 69 | 14 | 1.7 | 5.2 | 0.00 | 0.00 | 0.00 | 46 | 1012.9 |
| 20260507100304 | 68 | 73 | 2.6 | 7.0 | 0.00 | 0.00 | 0.00 | 46 | 1012.8 |
| 20260507094804 | 68 | 34 | 0.9 | 4.3 | 0.00 | 0.00 | 0.00 | 49 | 1013.0 |
| 20260507094304 | 67 | 343 | 1.7 | 5.2 | 0.00 | 0.00 | 0.00 | 49 | 1013.1 |
| 20260507093804 | 66 | 192 | 1.7 | 5.2 | 0.00 | 0.00 | 0.00 | 53 | 1013.2 |
| 20260507091804 | 66 | 4 | 1.7 | 7.0 | 0.00 | 0.00 | 0.00 | 55 | 1013.0 |
| 20260507090304 | 67 | 24 | 0.9 | 7.0 | 0.00 | 0.00 | 0.00 | 54 | 1013.0 |
| 20260507084805 | 65 | 35 | 2.6 | 5.2 | 0.00 | 0.00 | 0.00 | 56 | 1013.0 |
| 20260507084306 | 64 | 22 | 2.6 | 6.1 | 0.00 | 0.00 | 0.00 | 56 | 1012.9 |
| 20260507083804 | 64 | 14 | 0.9 | 7.0 | 0.00 | 0.00 | 0.00 | 58 | 1013.0 |
| 20260507081305 | 63 | 331 | 1.7 | 4.3 | 0.00 | 0.00 | 0.00 | 57 | 1013.1 |
| 20260507080804 | 63 | 252 | 1.7 | 5.2 | 0.00 | 0.00 | 0.00 | 57 | 1013.4 |
| 20260507080304 | 63 | 36 | 2.6 | 6.1 | 0.00 | 0.00 | 0.00 | 55 | 1013.2 |
| 20260507074804 | 62 | 61 | 2.6 | 4.3 | 0.00 | 0.00 | 0.00 | 61 | 1013.2 |
| 20260507074305 | 62 | 44 | 2.6 | 5.2 | 0.00 | 0.00 | 0.00 | 60 | 1013.1 |
| 20260507073804 | 62 | 38 | 0.9 | 4.3 | 0.00 | 0.00 | 0.00 | 63 | 1013.2 |
| 20260507073305 | 62 | 318 | 0.9 | 4.3 | 0.00 | 0.00 | 0.00 | 64 | 1013.1 |
| 20260507071805 | 61 | 290 | 0.9 | 2.6 | 0.00 | 0.00 | 0.00 | 72 | 1013.3 |
| 20260507071305 | 61 | 67 | 0.0 | 2.6 | 0.00 | 0.00 | 0.00 | 73 | 1013.4 |
| 20260507070804 | 60 | 355 | 0.9 | 2.6 | 0.00 | 0.00 | 0.00 | 74 | 1013.2 |
| 20260507064804 | 61 | 54 | 1.7 | 2.6 | 0.00 | 0.00 | 0.00 | 75 | 1013.0 |
| 20260507064304 | 59 | 68 | 0.0 | 4.3 | 0.00 | 0.00 | 0.00 | 79 | 1013.0 |
| 20260507063804 | 60 | 28 | 0.9 | 1.7 | 0.00 | 0.00 | 0.00 | 79 | 1013.2 |
| 20260507063305 | 60 | 292 | 0.9 | 2.6 | 0.00 | 0.00 | 0.00 | 78 | 1013.0 |
| 20260507061804 | 57 | 157 | 0.0 | 1.7 | 0.00 | 0.00 | 0.00 | 84 | 1013.3 |
| 20260507061304 | 55 | 82 | 0.9 | 2.6 | 0.00 | 0.00 | 0.00 | 87 | 1013.6 |
| 20260507060804 | 56 | 32 | 0.9 | 1.7 | 0.00 | 0.00 | 0.00 | 87 | 1013.5 |
| 20260507054804 | 53 | 79 | 0.0 | 1.7 | 0.00 | 0.00 | 0.00 | 92 | 1013.4 |
| 20260507054304 | 52 | 50 | 0.9 | 1.7 | 0.00 | 0.00 | 0.00 | 93 | 1013.5 |
| 20260507053803 | 50 | 101 | 0.9 | 2.6 | 0.00 | 0.00 | 0.00 | 94 | 1013.7 |
| 20260507051304 | 48 | 67 | 0.9 | 1.7 | 0.00 | 0.00 | 0.00 | 97 | 1013.6 |
| 20260507050304 | 47 | 153 | 0.9 | 1.7 | 0.00 | 0.00 | 0.00 | 97 | 1013.6 |
| 20260507044804 | 44 | 70 | 0.9 | 1.7 | 0.00 | 0.00 | 0.00 | 97 | 1013.8 |
| 20260507043304 | 43 | 70 | 0.9 | 1.7 | 0.00 | 0.00 | 0.00 | 97 | 1014.2 |
| 20260507041804 | 43 | 82 | 0.0 | 1.7 | 0.00 | 0.00 | 0.00 | 97 | 1014.1 |
| 20260507040804 | 43 | 70 | 0.9 | 1.7 | 0.00 | 0.00 | 0.00 | 97 | 1014.1 |
| 20260507040304 | 43 | 76 | 0.9 | 1.7 | 0.00 | 0.00 | 0.00 | 97 | 1014.2 |
| 20260507034804 | 44 | 65 | 0.9 | 1.7 | 0.00 | 0.00 | 0.00 | 97 | 1014.0 |
| 20260507033805 | 44 | 66 | 0.9 | 0.9 | 0.00 | 0.00 | 0.00 | 97 | 1014.1 |
| 20260507033304 | 44 | 135 | 0.0 | 0.9 | 0.00 | 0.00 | 0.00 | 97 | 1014.0 |
| 20260507031804 | 45 | 132 | 0.9 | 0.9 | 0.00 | 0.00 | 0.00 | 97 | 1014.1 |
| 20260507030304 | 45 | 150 | 0.0 | 1.7 | 0.00 | 0.00 | 0.00 | 96 | 1014.0 |
| 20260507024804 | 45 | 100 | 0.9 | 1.7 | 0.00 | 0.00 | 0.00 | 97 | 1013.8 |
| 20260507023303 | 45 | 144 | 0.0 | 1.7 | 0.00 | 0.00 | 0.00 | 96 | 1014.1 |
| 20260507021804 | 46 | 75 | 0.9 | 1.7 | 0.00 | 0.00 | 0.00 | 96 | 1014.0 |
| 20260507021304 | 46 | 103 | 0.9 | 1.7 | 0.00 | 0.00 | 0.00 | 96 | 1014.1 |
| 20260507020804 | 46 | 92 | 0.0 | 0.9 | 0.00 | 0.00 | 0.00 | 96 | 1014.0 |
| 20260507020304 | 47 | 111 | 0.9 | 1.7 | 0.00 | 0.00 | 0.00 | 96 | 1014.0 |
| 20260507014307 | 46 | 107 | 0.0 | 1.7 | 0.00 | 0.00 | 0.00 | 96 | 1014.0 |
| 20260507013805 | 46 | 81 | 1.7 | 1.7 | 0.00 | 0.00 | 0.00 | 96 | 1014.0 |
| 20260507013305 | 46 | 116 | 0.0 | 1.7 | 0.00 | 0.00 | 0.00 | 96 | 1014.1 |
| 20260507011805 | 47 | 95 | 0.0 | 0.9 | 0.00 | 0.01 | 0.00 | 95 | 1013.9 |
| 20260507011306 | 47 | 95 | 1.7 | 1.7 | 0.00 | 0.03 | 0.00 | 95 | 1014.1 |
| 20260507010806 | 47 | 91 | 0.9 | 1.7 | 0.00 | 0.07 | 0.00 | 95 | 1013.9 |
| 20260507010306 | 47 | 57 | 0.0 | 1.7 | 0.00 | 0.16 | 0.00 | 95 | 1013.9 |
| 20260507004806 | 48 | 85 | 0.9 | 0.9 | 0.00 | 0.48 | 0.00 | 94 | 1014.2 |
| 20260507004306 | 48 | 106 | 0.0 | 0.9 | 0.00 | 0.52 | 0.00 | 94 | 1013.9 |
| 20260507003805 | 48 | 27 | 0.0 | 1.7 | 0.00 | 0.58 | 0.00 | 93 | 1014.0 |
| 20260507003305 | 49 | 101 | 0.0 | 1.7 | 0.00 | 0.64 | 0.00 | 93 | 1014.1 |
| 20260507001806 | 50 | 124 | 0.9 | 1.7 | 0.00 | 0.67 | 0.00 | 92 | 1014.0 |
| 20260507001305 | 51 | 116 | 0.0 | 0.9 | 0.00 | 0.67 | 0.00 | 92 | 1013.8 |
| 20260507000806 | 51 | 241 | 0.0 | 1.7 | 0.00 | 0.69 | 0.00 | 92 | 1013.8 |
| 20260507000306 | 51 | 277 | 0.9 | 4.3 | 0.00 | 0.74 | 0.00 | 93 | 1014.0 |
| 20260506234807 | 49 | 23 | 0.9 | 1.7 | 0.00 | 0.77 | 0.00 | 94 | 1014.1 |
| 20260506234305 | 48 | 169 | 0.9 | 1.7 | 0.00 | 0.77 | 0.00 | 93 | 1014.1 |
| 20260506233805 | 49 | 138 | 0.9 | 1.7 | 0.00 | 0.77 | 0.00 | 93 | 1014.0 |
| 20260506233305 | 49 | 131 | 0.9 | 1.7 | 0.00 | 0.77 | 0.00 | 92 | 1014.2 |
| 20260506231805 | 50 | 136 | 0.9 | 1.7 | 0.00 | 0.77 | 0.00 | 89 | 1014.2 |
| 20260506231305 | 50 | 78 | 0.9 | 1.7 | 0.00 | 0.77 | 0.00 | 88 | 1014.1 |
| 20260506230305 | 52 | 60 | 0.9 | 2.6 | 0.00 | 0.77 | 0.00 | 87 | 1014.2 |
| 20260506224806 | 52 | 190 | 0.9 | 5.2 | 0.00 | 0.77 | 0.00 | 85 | 1014.0 |
| 20260506224305 | 53 | 70 | 0.9 | 2.6 | 0.00 | 0.77 | 0.00 | 85 | 1014.1 |
| 20260506223805 | 53 | 31 | 1.7 | 5.2 | 0.00 | 0.77 | 0.00 | 84 | 1014.0 |
| 20260506223305 | 53 | 290 | 0.9 | 8.7 | 0.00 | 0.77 | 0.00 | 84 | 1014.1 |
| 20260506221805 | 50 | 191 | 0.9 | 1.7 | 0.00 | 0.77 | 0.00 | 86 | 1014.1 |
| 20260506221305 | 50 | 213 | 0.9 | 1.7 | 0.00 | 0.77 | 0.00 | 86 | 1014.1 |
| 20260506220805 | 50 | 79 | 0.0 | 2.6 | 0.00 | 0.77 | 0.00 | 87 | 1014.0 |
| 20260506220306 | 50 | 225 | 0.0 | 4.3 | 0.00 | 0.77 | 0.00 | 86 | 1014.2 |
| 20260506214805 | 48 | 140 | 0.9 | 1.7 | 0.00 | 0.77 | 0.77 | 89 | 1014.2 |
| 20260506214305 | 47 | 115 | 0.9 | 1.7 | 0.00 | 0.77 | 0.77 | 90 | 1014.3 |